Location: Avebury
(53.1487°N, 106.9774°W)
Time: 15:50:42
(UTC+00:00)

Envisat - Pass Details

Date: 18 January 2022
Orbit: 764 x 765 km, 98.2° (Epoch: 22 May)

Event Time Altitude Azimuth Distance (km) Brightness Sun altitude
Rises 00:32:29 0° 214° (SW) 3,222 7.2 -9.8°
Reaches altitude 10° 00:35:40 10° 236° (SW) 2,302 6.9 -10.2°
Maximum altitude 00:38:47 16° 274° (W) 1,909 6.1 -10.7°
Drops below altitude 10° 00:41:55 10° 312° (NW) 2,312 5.9 -11.1°
Sets 00:45:09 0° 334° (NNW) 3,244 6.3 -11.6°
